Back to catalog

STARLINK-32118

AliveCommunicationsVLEO
NORAD 60280·PAYLOAD·🇺🇸 United States

Launched Jul 28, 2024 from Cape Canaveral Space Force Station

Loading…

Next Passes (next 24 hours)

TLE

FreshSource: CelesTrak SupGP

Epoch: Sep 15, 2026, 02:19 UTC

1 60280C 24132C   26258.09701389 -.00032572  00000+0 -96217-3 0  2584
2 60280  53.1570 250.8987 0001344  89.6129 292.2364 15.34412189    12

Track STARLINK-32118 in real time with AllMySat

Download on the App Store